Weather in La Rochelle

France     46˚09′37″N   1˚08′30″W
temp.,
°C
wind,
m/s
gust,
m/s
humid.,
%
clouds,
%
prec.,
mm/h
press.,
hPa
HPBL,
m
2 december, wed
wed201:00+7˚n798467 0.0 1024463
04:00+6˚n798441 0.0 1022385
07:00+7˚n798063 0.0 1022389
10:00+7˚n687833 0.0 1021330
13:00+8˚nnw566932 0.0 1021565
16:00+9˚nnw5669100 0.0 1019702
19:00+9˚nw566899 0.0 1018613
22:00+10˚sw4571100 0.0 1017577
3 december, thu
thu301:00+11˚sw3585100 0.9 1015506
04:00+10˚nw6883100 0.2 1012529
07:00+10˚wnw677397 0.2 1009895
10:00+11˚w81073100 0.1 10061147
13:00+12˚wsw131575100 1.0 10001513
16:00+11˚sw161978100 1.2 9941343
19:00+11˚wsw141678100 4.9 9891314
22:00+10˚w141687100 5.8 9851159
4 december, fri
fri401:00+10˚w14176897 6.7 9851653
04:00+9˚w12146795 1.8 9861493
07:00+9˚wnw8106481 2.8 9861375
10:00+6˚nw9992100 2.5 987592
13:00+7˚nw236995 3.9 987436
16:00+9˚wnw465241 0.1 9881479
19:00+9˚w565767 0.3 9891234
22:00+9˚w456299 2.3 9891035
5 december, sat
sat501:00+7˚nnw247089 4.6 990501
04:00+6˚nnw567694 0.0 991377
07:00+6˚nnw226485 0.0 991357
10:00+9˚sw795967 0.0 9911483
13:00+9˚wsw8117583 3.8 9901158
16:00+11˚w121571100 2.4 9881517
19:00+11˚wnw12156998 3.3 9891586
22:00+9˚nw12157390 0.2 9901260
6 december, sun
sun601:00+8˚nw7107566 0.2 991940
04:00+7˚nw687590 0.0 992750
07:00+7˚nw567091 0.1 992833
10:00+7˚nnw676883 0.0 993686
13:00+7˚nnw787191 0.0 994920
16:00+8˚nw10117168 0.2 9961315
19:00+7˚nnw10137960 0.6 999812
22:00+8˚nw710710 0.0 10011072